Location: Tel Aviv
(32.0670°N, 34.7670°E)
Time: 14:15:30
(UTC+03:00)

Explorer 11/Cluster Stage 4 - Pass Details

Date: 12 September 2024
Orbit: 464 x 1208 km, 28.8° (Epoch: 06 October)

Event Time Altitude Azimuth Distance (km) Brightness Sun altitude
Rises 05:50:41 0° 201° (SSW) 3,529 9.6 -7.7°
Reaches altitude 10° 05:54:23 10° 179° (S) 2,744 9.3 -6.9°
Maximum altitude 05:58:05 15° 146° (SE) 2,505 9.5 -6.1°
Drops below altitude 10° 06:02:04 10° 113° (ESE) 2,997 10.6 -5.3°
Sets 06:06:23 0° 93° (E) 4,051 12.5 -4.4°
